Terminal Aerodrome Forecast
Issued by NWS Huntsville, AL

Home | Current Version | Previous Version | Text Only | Print | Product List | Glossary On
Versions: 1 2 3 4 5 6 7 8 9 10 11 12 13 14 15 16 17 18 19 20 21 22 23 24 25 26 27 28
000
FTUS44 KHUN 181120
TAFHSV
TAF
KHSV 181120Z 1812/1912 03002KT P6SM VCSH BKN060 OVC100
      TEMPO 1812/1815 4SM SHRA BR BKN040
     FM181800 35006KT P6SM SCT050 SCT150
     FM190000 03002KT P6SM FEW050 SCT250
     FM190700 00000KT 5SM BR FEW250=

USA.gov is the U.S. government's official web portal to all federal, state and local government web resources and services.